This demonstration page uses our WeatherBlox Daily Observations layout. Learn more.

Left ArrowRight Arrow

Hourly Observations for August 15, 2020

Temp ( °F °C ) Dew Point ( °F °C ) Humidity (%) Winds ( mph kmh ) Pressure ( in mb ) Visibility ( mi km ) Precip ( " mm )
12:54 am 00:54 Mostly Cloudy 74 23.3 66 18.9 76 76 N 9 15 29.98 1015 10 16.0934 0 0
1:54 am 01:54 Mostly Cloudy 72 22.2 63 17.2 73 73 N 8 13 30.01 1016 10 16.0934 0 0
2:54 am 02:54 Partly Cloudy 71 21.7 62 16.7 73 73 N 8 13 30.02 1017 10 16.0934 0 0
3:54 am 03:54 Partly Cloudy 68 20 61 16.1 78 78 N 10 17 30.02 1017 10 16.0934 0 0
4:54 am 04:54 Clear 64 17.8 59 15 84 84 N 7 11 30.04 1017 10 16.0934 0 0
5:54 am 05:54 Clear 64 17.8 59 15 84 84 N 7 11 30.04 1017 10 16.0934 0 0
6:54 am 06:54 Sunny 59 15 56 13.3 90 90 N 7 11 30.07 1018 8 12.87472 0 0
7:54 am 07:54 Sunny 65 18.3 60 15.6 84 84 undefined N/A 30.08 1019 8 12.87472 0 0
8:54 am 08:54 Sunny 71 21.7 60 15.6 68 68 ENE 8 13 30.08 1019 9 14.48406 0 0
9:54 am 09:54 Sunny 74 23.3 56 13.3 54 54 ENE 13 20 30.08 1019 9 14.48406 0 0
10:54 am 10:54 Sunny 77 25 56 13.3 48 48 E 5 7 30.09 1019 10 16.0934 0 0
11:54 am 11:54 Sunny 81 27.2 55 12.8 41 41 VRB 6 9 30.08 1019 10 16.0934 0 0
12:54 pm 12:54 Sunny 84 28.9 51 10.6 32 32 ESE 10 17 30.07 1018 10 16.0934 0 0
1:54 pm 13:54 Sunny 86 30 47 8.3 26 26 E 9 15 30.07 1018 10 16.0934 0 0
2:54 pm 14:54 Sunny 86 30 41 5 20 20 ENE 9 15 30.06 1018 10 16.0934 0 0
3:54 pm 15:54 Sunny 86 30 46 7.8 25 25 ESE 9 15 30.06 1018 10 16.0934 0 0
4:54 pm 16:54 Sunny 86 30 46 7.8 25 25 ESE 8 13 30.05 1018 10 16.0934 0 0
5:54 pm 17:54 Sunny 87 30.6 45 7.2 23 23 NNE 3 6 30.04 1017 10 16.0934 0 0
6:54 pm 18:54 Sunny 82 27.8 51 10.6 34 34 ESE 8 13 30.04 1017 10 16.0934 0 0
7:54 pm 19:54 Sunny 78 25.6 55 12.8 45 45 S 6 9 30.06 1018 10 16.0934 0 0
8:54 pm 20:54 Clear 76 24.4 53 11.7 45 45 S 3 6 30.06 1018 10 16.0934 0 0
9:54 pm 21:54 Clear 75 23.9 56 13.3 52 52 SW 3 6 30.07 1018 10 16.0934 0 0
10:54 pm 22:54 Clear 69 20.6 56 13.3 63 63 Calm 30.07 1018 10 16.0934 0 0
11:54 pm 23:54 Clear 68 20 58 14.4 70 70 Calm 30.09 1019 9 14.48406 0 0

Powered by AerisWeather